Regional Weather Roundup
Issued by NWS

Home | Current Version | Previous Version | Graphics & Text | Print | Product List | Glossary On
Versions: 1 2 3 4 5 6 7 8 9 10 11 12 13 14 15 16 17 18 19 20 21 22 23 24 25 26 27 28 29 30 31 32 33 34 35 36 37 38 39 40 41 42 43 44 45 46 47 48 49 50
000
ASUS43 KBIS 021402
RWRND

NORTH DAKOTA REGIONAL WEATHER ROUNDUP
NATIONAL WEATHER SERVICE BISMARCK ND
800 AM CST FRI DEC 02 2016

NOTE: "FAIR" INDICATES FEW OR NO CLOUDS BELOW 12,000 FEET WITH NO
SIGNIFICANT WEATHER AND/OR OBSTRUCTIONS TO VISIBILITY.


NDZ001>003-009>011-017-021500-
NORTHWEST NORTH DAKOTA

CITY           SKY/WX    TMP DP  RH WIND       PRES   REMARKS
WILLISTON      CLOUDY    28  24  85 S5        30.17R
MINOT          CLOUDY    26  20  77 CALM      30.20R
MINOT AFB      CLOUDY    25  20  79 S5        30.19R WCI  19
$$

NDZ018>021-031>035-040>046-021500-
SOUTHWEST NORTH DAKOTA

CITY           SKY/WX    TMP DP  RH WIND       PRES   REMARKS
BISMARCK       CLOUDY    24  20  84 E3        30.23R
DICKINSON      CLOUDY    22  19  89 S7        30.13R WCI  13
GARRISON         N/A     26  22  84 SE5       30.18R
HETTINGER ARPT CLOUDY    24  21  88 S5        30.16R WCI  18
$$

NDZ004>008-012>016-024-026-027-054-021500-
NORTHEAST NORTH DAKOTA

CITY           SKY/WX    TMP DP  RH WIND       PRES   REMARKS
GRAND FORKS    CLOUDY    29  22  75 CALM      30.23R
GRND FRKS AFB  CLOUDY    28  22  79 CALM      30.23R
DEVILS LAKE    CLOUDY    28  21  75 N5        30.21R
$$

NDZ022-023-025-028>030-036>039-047>053-021500-
SOUTHEAST NORTH DAKOTA

CITY           SKY/WX    TMP DP  RH WIND       PRES   REMARKS
FARGO          CLOUDY    28  20  71 N9        30.23R WCI  19
JAMESTOWN      CLOUDY    26  20  77 N7        30.21R WCI  18
$$





USA.gov is the U.S. government's official web portal to all federal, state and local government web resources and services.